Espaço - Ciências - Fenômenos Naturais
Meteógrafos Informações Meteorológicas em tempo real

Aeroporto Santa Genoveva

Histórico do Tempo
Temperatura atual: 15 graus 59 F    Umidade relativa: 100 %
Velocidade do vento: 06 nós 10 Km/h    Direção: 110 graus ESE
Ajuste do altímetro ..: 1018 HPA
Visibilidade: Regular    Tempo presente: Quase sem nuvens

Observação

Data Hora BRTTempo°CUmidadePressãoVentoVisib.
26/05 - 07:56   Quase sem nuvens 15° 100% 1018 Este-sudeste/10 km/h 6000
26/05 - 06:56   Névoa úmida 15° 100% 1018 Este-sudeste/7 km/h 2000
26/05 - 05:56   Não Disponível 16° 100% 1017 Leste/3 km/h OK
26/05 - 04:56   Quase sem nuvens 16° 100% 1017 Norte/0 km/h OK
26/05 - 03:56   Quase sem nuvens 17° 93% 1017 Norte/3 km/h OK
26/05 - 02:56   Céu Limpo 18° 93% 1018 Sul-sudeste/7 km/h OK
26/05 - 01:56   Céu Limpo 18° 93% 1019 Leste/5 km/h OK
26/05 - 00:56   Céu Limpo 19° 88% 1018 Sudeste/7 km/h OK
25/05 - 23:56   Céu Limpo 20° 82% 1019 Sul-sudeste/5 km/h OK
25/05 - 22:56   Céu Limpo 20° 82% 1019 Leste/7 km/h OK
25/05 - 21:56   Céu Limpo 20° 82% 1018 Este-sudeste/7 km/h OK
25/05 - 20:56   Céu Limpo 21° 83% 1018 Sudeste/10 km/h OK
25/05 - 19:56   Céu Limpo 21° 83% 1017 Este-sudeste/12 km/h OK
25/05 - 18:56   Céu Limpo 23° 69% 1017 Sudeste/10 km/h OK
25/05 - 17:56   Céu Limpo 24° 65% 1017 Sudeste/10 km/h OK
25/05 - 16:56   Céu Limpo 25° 61% 1017 Este-sudeste/12 km/h OK
25/05 - 15:56   Céu Limpo 24° 65% 1017 Sul/9 km/h OK
25/05 - 14:56   Não Disponível 23° 69% 1018 /9 km/h OK
25/05 - 13:56   Parcialmente Nublado 22° 73% 1018 Sudeste/10 km/h OK
25/05 - 12:56   Parcialmente Nublado 22° 73% 1019 Este-sudeste/9 km/h OK
25/05 - 11:56   Céu Encoberto 20° 82% 1020 Sul-sudeste/9 km/h OK
25/05 - 10:56   Céu Encoberto 19° 88% 1020 Este-sudeste/10 km/h OK
25/05 - 09:56   Céu Encoberto 19° 82% 1020 Sul-sudeste/10 km/h OK
25/05 - 08:56   Poucas nuvens esparsas 18° 88% 1019 Sudeste/10 km/h OK


Apolo11.com - Todos os direitos reservados - 2000 - 2019
Política de Privacidade   |     Termo de Uso e Licenciamento   |  -   Entre em Contato

"Deixe que me odeiem, de maneira que me temam!" - Calígula